Lapse_Rate
4.2 4.1 4.2 4.4 4.5 4.5 4.5 4.5 4.5 4.5 4.7 4.7 4.7 4.9 4.8 4.9 4.9 4.9 5.1 5.3 5.4 5.4 5.5 5.4 5.3 5.4 5.5 5.7 5.7 5.5 5.3 5.4 5.4 5.1 5.2 5.7 5.9 5.2
4.1 4.1 4.1 4.3 4.3 4.2 4.3 4.1 4.1 4.1 4.3 4.5 4.7 4.9 5.0 5.0 5.2 5.1 5.0 5.0 5.0 5.2 5.3 5.4 5.3 5.3 5.6 5.7 5.6 5.3 5.7 5.6 5.5 4.9 5.5 5.2 5.3 5.9
4.1 4.2 4.2 4.1 4.1 4.0 4.1 4.0 3.9 4.0 4.1 4.5 4.8 5.2 5.4 5.4 5.5 5.5 5.3 5.2 5.1 5.0 5.0 5.1 5.1 5.1 5.2 5.4 5.8 5.5 5.4 5.4 5.5 5.3 5.3 5.2 4.8 5.3
4.0 4.0 3.9 3.7 3.8 3.9 4.0 4.0 4.0 4.0 4.3 4.8 5.2 5.3 5.3 5.2 5.5 5.5 5.4 5.4 5.3 5.3 5.0 4.9 4.9 4.9 5.0 5.0 5.3 5.9 5.8 5.9 6.1 5.5 5.6 5.5 5.2 5.4
3.7 3.5 3.7 3.6 3.8 3.8 4.0 4.1 4.1 4.3 4.8 5.5 5.8 5.7 5.8 5.6 5.7 5.8 5.8 5.8 5.4 5.4 5.1 4.9 4.9 4.9 4.8 4.9 5.0 5.3 5.8 5.6 5.7 5.6 5.7 5.8 5.3 5.0
3.6 3.6 3.8 3.8 4.0 3.9 4.2 4.3 4.4 4.8 5.4 5.9 6.0 6.1 6.0 6.0 6.2 6.0 5.8 5.7 5.4 5.3 5.3 5.0 4.9 4.9 4.9 4.8 4.8 4.8 5.1 5.4 5.4 5.5 5.6 5.6 5.6 5.6
3.8 3.9 4.0 4.2 4.2 4.2 4.4 4.4 4.9 5.5 6.0 6.2 6.2 6.2 6.1 6.1 6.1 5.8 5.9 5.6 5.0 5.2 5.3 5.2 5.1 5.1 5.1 5.0 4.9 4.9 4.9 5.0 5.1 5.1 5.3 5.4 5.6 5.6
4.3 4.2 4.2 4.3 4.4 4.6 4.5 5.1 5.9 6.2 6.1 6.1 6.2 6.3 6.2 6.1 6.1 5.9 5.8 5.8 5.6 5.2 5.5 4.9 5.4 5.2 5.1 5.1 5.2 5.0 4.9 5.0 5.2 5.2 5.1 5.1 5.2 5.5
4.8 4.4 4.4 4.4 4.7 4.7 5.1 6.0 6.2 5.9 5.9 6.0 6.4 6.2 6.2 6.1 6.1 5.8 5.7 6.0 5.7 5.3 5.6 5.0 5.6 5.3 5.1 5.1 5.1 5.1 5.1 5.0 4.9 5.1 5.2 5.2 5.2 5.2
4.9 4.6 4.6 4.8 4.9 5.3 5.9 6.0 6.0 6.1 6.2 6.2 6.0 5.8 5.9 6.0 5.9 5.8 5.7 5.6 5.6 5.5 5.8 5.6 5.8 5.5 5.2 5.2 5.1 5.0 4.9 5.0 5.1 5.1 5.2 5.3 5.3 5.2
5.4 4.9 4.8 5.1 5.5 5.9 6.1 5.9 6.4 6.2 6.0 6.0 5.8 5.2 5.5 5.7 5.8 5.8 5.6 5.7 5.5 5.3 5.7 6.2 6.1 5.9 5.5 5.2 5.0 4.7 4.6 4.7 4.8 4.8 4.9 5.1 5.3 5.2
5.7 5.0 4.9 5.4 5.9 6.1 5.9 5.8 6.2 6.0 6.1 6.0 5.8 5.1 5.1 5.4 5.7 5.7 5.7 5.7 5.6 5.6 5.3 6.3 6.2 6.0 5.9 5.3 5.0 4.7 4.5 4.4 4.4 4.5 4.6 4.7 4.7 4.7
5.7 5.4 5.4 5.8 6.1 6.1 6.1 6.0 5.9 5.8 5.9 5.8 5.3 4.9 4.8 5.4 5.5 5.5 5.7 5.6 5.6 5.8 5.8 6.2 6.0 5.7 6.2 6.5 5.9 4.9 4.5 4.3 4.3 4.2 4.2 4.5 4.4 4.4
5.6 5.5 5.9 6.1 6.1 6.3 6.3 5.9 5.8 5.6 5.6 5.6 5.5 4.7 4.9 5.4 5.2 5.3 5.4 5.7 5.9 5.7 5.4 6.0 6.4 6.1 6.5 6.8 7.1 6.8 6.2 5.8 5.6 5.3 5.5 6.0 6.0 5.7
5.7 5.8 6.1 6.1 6.0 6.2 6.1 5.6 5.3 5.3 5.3 5.5 5.3 4.8 5.2 5.2 5.0 5.1 5.3 5.5 5.6 5.6 5.7 5.8 6.2 6.5 6.8 7.0 7.1 6.8 6.8 6.7 6.6 6.6 6.5 6.6 6.8 6.8
6.2 6.1 6.2 5.9 6.0 6.0 5.9 5.5 5.3 5.3 5.3 5.3 4.8 5.0 5.1 5.0 4.9 5.0 5.1 5.4 5.6 5.4 6.0 6.2 6.5 6.9 7.0 6.7 6.7 6.6 6.4 6.6 6.3 6.1 6.3 6.5 6.7 6.9
6.1 6.3 6.2 6.1 6.0 5.8 5.5 5.2 5.1 5.1 5.2 4.9 4.8 5.1 5.0 4.9 4.9 5.0 5.2 5.4 5.8 5.7 5.6 5.9 6.5 6.8 6.7 6.5 6.5 6.3 6.1 6.1 6.0 6.0 6.1 6.3 6.5 6.7
6.3 6.5 6.2 6.1 6.0 5.6 5.4 5.1 5.0 5.0 5.0 4.8 5.0 5.0 4.9 4.9 5.0 5.1 5.3 5.5 5.8 6.0 6.2 6.2 6.5 6.6 6.3 6.1 6.2 6.1 6.1 5.8 5.6 5.7 6.0 6.0 6.2 6.3
6.5 6.4 6.2 6.1 5.9 5.8 5.3 5.0 4.8 4.8 4.9 4.7 5.1 4.9 4.9 4.9 5.0 5.1 5.3 5.6 5.9 6.2 6.2 6.5 6.5 6.3 6.3 6.3 6.2 6.1 5.9 5.3 5.3 5.5 5.6 5.7 5.7 6.0
6.7 6.6 6.3 5.9 5.9 5.7 5.2 5.0 4.8 4.8 4.7 4.9 5.1 4.9 5.0 5.1 5.2 5.3 5.5 5.7 5.8 6.1 6.4 6.2 5.8 5.9 5.9 5.8 6.2 6.4 5.6 5.3 5.2 5.4 5.8 5.5 5.4 5.6
7.0 6.8 6.2 6.0 5.9 5.7 5.3 5.1 4.9 4.8 4.7 4.9 5.0 4.9 5.0 5.2 5.3 5.5 5.6 5.6 6.0 6.4 6.5 6.1 5.9 6.0 6.0 6.0 6.1 6.1 5.9 5.4 4.9 4.5 4.9 5.3 5.3 5.4
7.1 6.7 6.4 6.2 6.1 5.9 5.6 5.3 5.1 5.0 5.1 5.0 5.0 5.0 5.2 5.4 5.5 5.6 5.7 5.8 6.1 6.3 6.1 5.9 5.8 5.7 5.7 5.7 5.7 5.6 5.7 5.6 5.1 4.6 4.6 4.6 4.3 4.9
7.1 6.7 6.5 6.4 6.4 6.3 6.1 5.6 5.4 5.2 5.3 5.2 5.2 5.1 5.3 5.5 5.7 5.7 5.8 6.0 6.1 6.0 5.7 5.8 5.9 5.8 5.9 5.7 5.6 5.6 5.5 5.1 4.8 4.7 4.8 4.2 3.7 3.6
Wind_Speed
5 5 4 3 3 3 3 3 3 2 3 2 2 3 9 10 13 13 13 13 18 16 17 18 19 19 18 17 18 19 17 19 17 18 18 22 21 19
4 5 4 2 3 3 3 3 2 3 3 2 3 3 6 8 12 12 12 11 15 16 15 16 18 19 18 16 16 17 19 18 17 16 20 20 20 21
5 5 6 4 3 3 3 3 3 3 4 3 2 3 3 4 7 11 8 7 13 15 13 12 15 17 16 13 14 18 20 18 16 17 19 19 18 19
6 6 6 4 5 4 3 4 3 3 3 5 2 2 3 3 4 4 3 8 11 13 12 10 15 17 14 13 12 14 18 18 16 16 18 18 18 17
7 6 6 6 5 3 3 3 3 3 2 3 3 2 3 2 3 3 2 4 8 14 8 10 16 15 15 12 14 14 15 16 15 12 16 17 17 18
7 7 7 7 7 6 5 5 4 3 3 3 3 3 3 4 2 3 3 2 4 6 6 9 15 15 13 13 13 15 14 14 14 12 16 16 17 18
7 7 7 9 14 10 5 5 5 4 3 3 4 2 3 3 2 2 3 5 4 1 2 3 3 6 10 11 11 13 12 14 11 13 15 16 18 17
9 8 7 12 12 16 16 15 9 5 5 3 3 6 4 3 2 2 3 3 3 2 3 7 2 3 3 9 12 12 11 9 7 13 14 17 19 16
9 8 6 6 11 6 12 16 13 16 13 5 6 5 4 4 3 3 3 3 4 4 3 5 1 3 4 9 14 11 6 1 9 15 16 17 17 17
9 9 8 7 7 7 6 6 6 6 6 5 5 6 6 6 5 4 6 5 3 4 1 3 2 2 4 9 9 5 4 6 15 18 16 13 17 18
9 9 8 8 13 17 7 7 6 6 10 15 16 16 14 13 11 4 3 3 3 3 0 2 2 3 3 3 6 5 14 14 21 16 15 19 20 19
7 7 16 12 17 19 9 7 6 6 5 5 4 7 9 7 12 4 3 3 2 2 2 1 2 2 4 3 2 7 10 17 16 16 20 19 16 8
7 6 7 19 21 20 18 8 8 6 8 7 5 4 4 4 4 3 3 3 2 3 3 1 1 1 3 4 3 3 6 7 7 13 14 14 16 10
8 7 7 16 19 19 14 12 14 12 4 4 4 4 4 4 3 3 4 4 6 5 7 4 3 3 3 7 7 5 3 6 7 5 4 13 12 13
7 11 14 16 17 15 16 14 13 4 3 4 5 4 3 3 2 2 4 6 7 7 9 7 4 4 4 6 8 8 8 5 6 6 3 4 4 5
13 10 11 12 12 9 7 7 3 4 4 5 5 4 2 2 2 2 2 3 3 5 7 12 7 4 5 7 7 9 8 5 3 5 4 5 6 8
6 5 6 4 4 4 3 4 4 3 4 3 4 3 3 3 2 2 3 4 5 5 6 2 6 7 6 9 9 9 10 9 7 8 5 7 6 6
6 5 7 7 7 6 6 6 5 7 4 4 3 3 3 3 2 3 4 5 6 6 6 6 2 2 3 6 18 10 8 8 7 7 7 7 10 7
6 7 7 7 7 6 6 5 5 5 4 4 3 3 3 2 5 4 4 5 5 4 6 5 2 3 7 8 3 13 8 8 6 7 7 7 8 10
6 7 7 7 6 6 5 5 5 4 3 3 3 3 3 3 4 5 5 5 3 5 7 3 4 6 7 6 6 9 16 8 8 9 10 8 9 21
6 7 7 7 6 6 5 4 5 4 4 3 4 3 3 4 5 5 5 11 11 6 8 8 6 13 6 5 4 9 9 19 19 11 8 5 9 8
7 7 5 6 6 5 4 4 4 4 3 5 4 4 4 4 5 5 5 5 6 6 8 8 8 4 5 7 11 13 11 8 12 23 26 23 8 7
8 8 6 6 6 5 4 4 4 4 5 4 4 4 4 5 5 4 5 6 7 8 8 8 7 7 9 9 14 11 16 14 9 8 9 21 26 27
Wind_Direction
228 228 218 224 211 226 219 199 187 289 290 286 315 319 330 332 336 346 345 344 357 359 1 2 7 10 14 22 19 16 13 18 16 25 26 26 18 23
232 223 232 236 238 234 225 223 202 210 255 249 266 285 307 321 329 334 338 353 357 352 359 1 6 5 6 12 13 14 11 19 18 17 25 20 17 8
240 227 236 225 234 238 223 217 220 196 237 277 261 290 292 315 318 326 340 358 349 346 349 358 6 1 359 5 9 8 9 14 20 19 19 15 11 5
230 236 239 233 228 225 219 227 226 232 226 272 276 289 279 299 295 307 334 334 340 335 336 351 352 349 352 354 1 9 3 5 4 15 18 17 10 10
222 222 229 225 239 230 229 246 251 260 248 253 281 277 280 297 311 305 310 301 325 329 336 2 352 347 348 351 353 353 1 354 354 357 9 13 7 15
224 220 218 217 221 223 222 234 237 236 253 257 271 275 258 281 279 285 310 282 308 331 337 340 345 340 334 342 341 339 345 349 350 353 2 4 3 10
223 223 219 222 227 221 207 222 220 227 235 250 263 260 263 277 270 279 294 303 294 238 301 313 309 317 318 327 318 321 337 342 355 2 355 358 355 1
227 223 221 234 234 234 236 239 212 212 234 229 248 254 255 248 240 262 287 312 334 218 319 314 280 288 291 313 324 319 321 333 358 356 351 345 347 353
216 215 224 221 221 217 246 253 242 255 250 243 252 244 250 236 237 251 254 250 266 287 352 300 304 305 300 308 321 309 274 138 3 345 343 340 340 343
205 209 216 217 212 212 217 231 236 235 249 262 250 249 246 252 237 251 267 269 280 277 202 281 333 296 301 316 342 13 66 356 338 335 328 330 333 330
197 199 209 223 227 235 216 218 226 235 246 262 268 265 269 288 296 295 274 252 275 278 322 245 320 306 303 312 324 344 343 336 332 331 332 326 324 324
194 206 231 234 234 235 229 201 220 228 226 250 265 273 271 283 292 267 247 228 221 297 232 301 305 6 326 284 287 310 322 317 314 315 316 317 316 313
203 215 221 238 238 233 230 198 216 211 241 248 232 238 252 262 265 261 233 196 194 228 239 215 219 245 226 287 268 290 286 293 294 300 299 304 310 297
212 213 220 235 237 232 234 239 227 233 218 197 224 231 240 252 255 251 251 240 238 235 255 237 225 197 248 278 287 297 272 277 272 258 263 292 289 291
214 214 220 228 236 230 232 238 237 227 201 220 236 239 208 223 238 260 256 262 262 256 253 234 205 233 216 259 272 286 301 297 273 269 261 244 250 268
215 220 222 221 218 212 224 236 221 208 213 231 232 225 201 204 215 208 249 267 269 277 251 256 242 209 256 254 261 276 271 261 272 259 238 253 264 257
197 197 200 194 198 197 191 199 206 208 228 210 208 214 224 218 243 200 243 268 265 285 290 260 257 251 245 256 270 262 267 267 257 268 261 270 264 249
203 196 203 207 206 204 213 218 206 229 210 201 199 204 218 214 223 239 240 246 263 273 288 293 280 319 293 267 232 255 265 258 265 263 257 264 281 265
210 207 209 210 204 202 200 200 209 208 191 193 192 199 207 193 274 257 249 253 262 258 268 269 261 246 280 279 267 248 241 265 263 264 256 250 257 269
202 195 207 210 193 195 196 200 205 189 183 194 187 179 190 212 245 250 248 252 239 270 277 249 223 231 244 261 279 280 249 257 262 268 272 264 258 268
207 197 204 203 195 198 195 194 199 198 182 177 184 181 193 217 242 250 254 277 282 284 283 278 265 266 260 262 254 270 276 249 248 252 268 264 277 277
202 206 203 201 198 192 183 185 188 196 180 184 177 184 204 220 244 252 251 262 262 267 270 279 288 275 261 258 270 277 283 284 260 257 254 251 257 266
197 199 203 200 199 184 180 181 183 188 190 180 175 193 207 232 239 242 256 266 271 270 265 275 279 274 266 269 271 275 274 277 279 277 262 252 258 261